Location: Holkham
(52.9500°N, 0.8167°E)
Time: 19:27:12
(UTC+00:00)

Meteor 2-15 - Pass Details

Date: 19 May 2025
Orbit: 935 x 956 km, 82.5° (Epoch: 22 June)

Event Time Altitude Azimuth Distance (km) Brightness Sun altitude
Rises 22:34:41 0° 349° (NNW) 3,632 9.3 -15.1°
Reaches altitude 10° 22:37:12 10° 350° (N) 2,679 8.2 -15.2°
Maximum altitude 22:43:21 78° 77° (ENE) 968 4.5 -15.5°
Enters shadow 22:47:15 24° 162° (SSE) 1,860 5.3 -15.7°
